Location: Gro�sch�nbrunn
(49.5760°N, 11.8868°E)
Time: 15:21:45
(UTC+00:00)

Cosmos 2082 Rocket - Pass Details

Date: 18 September 2020
Orbit: 834 x 853 km, 71.0° (Epoch: 27 October)

Event Time Altitude Azimuth Distance (km) Brightness Sun altitude
Rises 18:55:13 0° 334° (NNW) 3,393 6.1 -16.1°
Reaches altitude 10° 18:58:36 10° 354° (N) 2,456 5.0 -16.6°
Maximum altitude 19:02:10 17° 34° (NE) 2,009 4.1 -17.1°
Enters shadow 19:04:34 13° 63° (ENE) 2,218 4.0 -17.5°
